Tracking 29892 objects as of 21-Nov-2024
HD Live streaming from Space Station
objects crossing your sky now

STARLINK-5190

Track STARLINK-5190 now!
10-day predictions
STARLINK-5190 is classified as:


NORAD ID: 54092
Int'l Code: 2022-136AT
Perigee: 473.1 km
Apogee: 476.3 km
Inclination: 53.2 °
Period: 93.9 minutes
Semi major axis: 6845 km
RCS: Unknown
Launch date: October 20, 2022
Source: United States (US)
Launch site: AIR FORCE EASTERN TEST RANGE (AFETR)
Your satellite tracking list
Your tracking list is empty




NASA's NSSDC Master Catalog

Two Line Element Set (TLE):
1 54092U 22136AT  24325.87189298  .00022466  00000-0  70958-3 0  9994
2 54092  53.1920 270.1249 0002326 323.5370  36.5473 15.32764985115895
Source of the keplerian elements: AFSPC